FW8630 Weather Reports


time (UTC)temp
C
wind
direction
speed
KPH
gust
KPH
rain 1hr
cm
rain 24hr
cm
rain mn
cm
humidity
%
barometer
mb
20260502231530 11 219 11.3 19.3 0.00 0.00 0.00 90 1012.4
20260502230027 11 222 9.7 16.1 0.00 0.00 0.00 90 1012.6
20260502224527 11 219 11.3 17.7 0.00 0.00 0.00 89 1012.5
20260502223023 11 225 11.3 22.5 0.00 0.00 0.00 90 1012.5
20260502221523 11 234 11.3 25.7 0.00 0.00 0.00 90 1012.8
20260502220018 11 196 9.7 19.3 0.00 0.00 0.00 91 1012.8
20260502214533 10 225 9.7 25.7 0.00 0.00 0.00 92 1012.9
20260502213016 10 222 8.0 16.1 0.00 0.00 0.00 93 1013.0
20260502211518 10 213 11.3 20.9 0.00 0.00 0.00 93 1013.2
20260502210024 10 231 12.9 22.5 0.00 0.00 0.00 92 1013.3
20260502204517 10 228 14.5 27.4 0.00 0.00 0.00 92 1013.3
20260502203015 10 214 9.7 17.7 0.00 0.00 0.00 92 1013.4
20260502201513 11 211 8.0 19.3 0.00 0.00 0.00 91 1013.4
20260502200013 11 202 12.9 30.6 0.00 0.00 0.00 90 1013.4
20260502194513 11 221 12.9 20.9 0.00 0.00 0.00 90 1013.2
20260502193012 11 219 11.3 20.9 0.00 0.00 0.00 90 1013.3
20260502191517 11 203 17.7 29.0 0.00 0.00 0.00 91 1013.2
20260502190010 11 207 12.9 29.0 0.00 0.00 0.00 91 1013.3
20260502184514 11 165 14.5 29.0 0.00 0.00 0.00 90 1013.3
20260502183010 11 198 16.1 30.6 0.00 0.00 0.00 90 1013.2
20260502181508 11 212 14.5 32.2 0.00 0.00 0.00 90 1013.2
20260502163003 12 199 16.1 37.0 0.00 0.00 0.00 86 1013.6
20260502161501 12 217 17.7 35.4 0.00 0.00 0.00 84 1014.0
20260502151554 14 213 20.9 48.3 0.00 0.00 0.00 79 1015.0
20260502123045 16 186 20.9 43.5 0.00 0.00 0.00 73 1017.6
20260502121541 16 360 19.3 35.4 0.00 0.00 0.00 71 1017.9
20260502114530 16 360 20.9 46.7 0.00 0.00 0.00 72 1018.4
20260502113028 16 198 22.5 41.8 0.00 0.00 0.00 74 1018.7
20260502111526 15 206 17.7 37.0 0.00 0.00 0.00 76 1018.9
20260502110031 15 168 17.7 33.8 0.00 0.00 0.00 76 1019.2
20260502104521 15 200 16.1 33.8 0.00 0.00 0.00 75 1019.4
20260502103022 15 203 16.1 33.8 0.00 0.00 0.00 75 1019.6
20260502101519 15 223 17.7 32.2 0.00 0.00 0.00 76 1019.6
20260502091510 15 219 11.3 17.7 0.00 0.00 0.00 79 1020.1
20260502070047 13 235 4.8 12.9 0.00 0.00 0.00 80 1021.1
20260502064543 12 240 4.8 11.3 0.00 0.00 0.00 81 1021.1
20260502063047 12 233 4.8 9.7 0.00 0.00 0.00 83 1021.2
20260502061539 12 219 3.2 8.0 0.00 0.00 0.00 83 1021.4
20260502060034 11 212 3.2 12.9 0.00 0.00 0.00 84 1021.5
20260502054536 11 236 6.4 14.5 0.00 0.00 0.00 85 1021.5
20260502053026 11 234 6.4 11.3 0.00 0.00 0.00 85 1021.3
20260502051520 11 211 4.8 8.0 0.00 0.00 0.00 84 1021.2
20260502050024 11 215 3.2 8.0 0.00 0.00 0.00 85 1021.2
20260502044512 11 198 4.8 12.9 0.00 0.00 0.00 85 1021.2
20260502043009 10 229 3.2 6.4 0.00 0.00 0.00 85 1021.3
20260502041507 10 182 1.6 6.4 0.00 0.00 0.00 87 1021.2
20260502033058 10 269 0.0 4.8 0.00 0.00 0.00 88 1021.2
20260502031555 10 243 4.8 14.5 0.00 0.00 0.00 85 1021.3
20260502030151 10 277 6.4 17.7 0.00 0.00 0.00 86 1021.4
20260502023049 10 240 4.8 14.5 0.00 0.00 0.00 88 1021.5
20260502021542 10 256 4.8 17.7 0.00 0.00 0.00 86 1021.5
20260502020038 9 248 4.8 19.3 0.00 0.00 0.00 89 1021.5
20260502014536 6 271 1.6 6.4 0.00 0.00 0.00 95 1021.7
20260502013043 5 288 1.6 9.7 0.00 0.00 0.00 97 1021.6
20260502011534 5 236 0.0 4.8 0.00 0.00 0.00 96 1021.7
20260502010029 5 182 0.0 4.8 0.00 0.00 0.00 96 1021.8
20260502004546 5 178 0.0 3.2 0.00 0.00 0.00 96 1021.9
20260502003026 5 178 1.6 4.8 0.00 0.00 0.00 96 1021.9
20260502001526 5 179 1.6 3.2 0.00 0.00 0.00 96 1021.9
20260502000027 6 179 0.0 3.2 0.00 0.00 0.00 95 1022.1
20260501234527 6 179 1.6 3.2 0.00 0.00 0.00 95 1022.1
20260501233020 6 179 0.0 4.8 0.00 0.00 0.00 95 1022.1